Location: Amberg
(48.0613°N, 10.6820°E)
Time: 07:00:39
(UTC+00:00)

ERS-1 - Pass Details

Date: 18 November 2025
Orbit: 737 x 784 km, 98.8° (Epoch: 06 December)

Event Time Altitude Azimuth Distance (km) Brightness Sun altitude
Rises 16:32:05 0° 153° (SSE) 3,254 7.7 -9.4°
Reaches altitude 10° 16:34:24 10° 151° (SSE) 2,326 6.9 -9.8°
Maximum altitude 16:39:28 63° 71° (ENE) 861 4.5 -10.6°
Drops below altitude 10° 16:44:31 10° 351° (N) 2,316 6.9 -11.4°
Sets 16:46:50 0° 348° (NNW) 3,239 7.7 -11.8°
